Willimantic, CT

5:40 AM EST on December 16, 2019 (GMT -0500)
Windham

Weather History for KIJD - June, 2019

Change the Weather History Date:

Friday, June 7, 2019

  Actual Average Record
Temperature  
Mean Temperature 69 °F -  
Max Temperature 81 °F 75 °F 96 °F (1999)
Min Temperature 59 °F 51 °F 30 °F (1958)
Cooling Degree Days 4    
Growing Degree Days 19 (Base 50)    
Moisture  
Dew Point 56 °F    
Average Humidity 71    
Maximum Humidity 96    
Minimum Humidity 39    
Precipitation  
Precipitation 0.00 in - - ()
Sea Level Pressure  
Sea Level Pressure 29.92 in    
Wind  
Wind Speed 2 mph ()    
Max Wind Speed 12 mph    
Max Gust Speed -    
Visibility 10.0 miles    
Events      
Averages and records for this station are not official NWS values.
T = Trace of Precipitation, MM = Missing Value Source: Averaged Metar Reports

Daily Weather History Graph

Daily Weather History Graph

Search for Another Location

Airport or City:

Astronomy

Jun. 07, 2019 Rise Set
Actual Time 5:14 AM EDT 8:20 PM EDT
Civil Twilight 4:40 AM EDT 8:54 PM EDT
Nautical Twilight 3:57 AM EDT 9:38 PM EDT
Astronomical Twilight 3:06 AM EDT 10:29 PM EDT
Moon 9:29 AM EDT (6/7) No Moon Set
Length of Visible Light 16h 14m
Length of Day
15h 06m
Waxing Crescent, 22% of the Moon is Illuminated
Jun 7
Waxing Crescent
Jun 10
First Quarter
Jun 17
Full
Jun 25
Last Quarter
Jul 2
New

Hourly Weather History & Observations

Time (EDT) Temp. Dew Point Humidity Pressure Visibility Wind Dir Wind Speed Gust Speed Precip Events Conditions
12:52 AM 63.0 °F 59.0 °F 87% 29.87 in 10.0 mi Calm Calm - N/A   Partly Cloudy
1:52 AM 62.1 °F 59.0 °F 90% 29.87 in 10.0 mi Calm Calm - N/A   Mostly Cloudy
2:52 AM 60.1 °F 57.9 °F 93% 29.87 in 10.0 mi Calm Calm - N/A   Partly Cloudy
3:52 AM 59.0 °F 57.9 °F 96% 29.87 in 10.0 mi NNE 3.5 mph - N/A   Mostly Cloudy
4:05 AM 59.0 °F 57.9 °F 96% 29.88 in 10.0 mi Calm Calm - N/A   Mostly Cloudy
4:22 AM 59.0 °F 57.9 °F 96% 29.88 in 10.0 mi Calm Calm - N/A   Overcast
4:52 AM 59.0 °F 57.0 °F 93% 29.88 in 10.0 mi Calm Calm - N/A   Overcast
5:17 AM 59.0 °F 57.0 °F 93% 29.89 in 10.0 mi Calm Calm - N/A   Mostly Cloudy
5:52 AM 59.0 °F 57.0 °F 93% 29.90 in 10.0 mi Calm Calm - N/A   Overcast
6:52 AM 60.1 °F 57.9 °F 93% 29.91 in 10.0 mi Calm Calm - N/A   Scattered Clouds
7:52 AM 63.0 °F 59.0 °F 87% 29.92 in 10.0 mi Calm Calm - N/A   Mostly Cloudy
8:52 AM 70.0 °F 55.0 °F 59% 29.92 in 10.0 mi Variable 3.5 mph - N/A   Clear
9:52 AM 75.0 °F 51.1 °F 43% 29.93 in 10.0 mi North 5.8 mph - N/A   Clear
10:52 AM 75.9 °F 50.0 °F 40% 29.94 in 10.0 mi ENE 3.5 mph - N/A   Partly Cloudy
11:52 AM 77.0 °F 51.1 °F 40% 29.94 in 10.0 mi Calm Calm - N/A   Partly Cloudy
12:52 PM 77.0 °F 50.0 °F 39% 29.94 in 10.0 mi Variable 4.6 mph - N/A   Clear
1:52 PM 78.1 °F 51.1 °F 39% 29.91 in 10.0 mi West 5.8 mph - N/A   Clear
2:52 PM 79.0 °F 52.0 °F 39% 29.91 in 10.0 mi West 5.8 mph - N/A   Clear
3:52 PM 78.1 °F 52.0 °F 40% 29.90 in 10.0 mi WNW 5.8 mph - N/A   Overcast
4:52 PM 77.0 °F 60.1 °F 56% 29.91 in 10.0 mi South 11.5 mph - N/A   Mostly Cloudy
5:52 PM 73.9 °F 59.0 °F 59% 29.92 in 10.0 mi South 8.1 mph - N/A   Clear
6:52 PM 72.0 °F 59.0 °F 64% 29.93 in 10.0 mi South 8.1 mph - N/A   Clear
7:52 PM 70.0 °F 57.9 °F 65% 29.94 in 10.0 mi South 8.1 mph - N/A   Clear
8:52 PM 66.9 °F 55.9 °F 68% 29.96 in 10.0 mi SSE 5.8 mph - N/A   Clear
9:52 PM 64.0 °F 55.9 °F 75% 29.99 in 10.0 mi SE 4.6 mph - N/A   Clear
10:52 PM 62.1 °F 55.9 °F 80% 30.00 in 10.0 mi Calm Calm - N/A   Clear
11:52 PM 60.1 °F 55.9 °F 86% 30.01 in 10.0 mi Calm Calm - N/A   Clear